Wind_Speed
47 47 45 46 45 44 44 42 40 41 40 41 40 40 39 37 37 38 38 36 34 32 32 32 33 33 32 31 30 31 31 30 30
50 50 50 49 49 47 47 45 45 46 46 46 46 44 43 42 41 41 42 40 39 38 36 36 36 35 36 36 36 36 37 36 34
47 49 51 51 50 51 51 49 50 52 51 50 51 52 50 48 46 44 45 44 43 43 40 40 40 39 38 39 39 39 38 38 38
38 41 46 49 50 51 52 53 53 53 55 53 53 53 53 54 53 51 52 51 49 48 48 47 45 45 45 46 45 44 43 41 41
44 42 40 39 43 49 51 53 53 54 55 57 59 60 61 62 61 61 58 55 53 51 49 47 48 49 49 51 50 49 48 45 44
51 51 49 44 42 42 45 46 46 50 52 51 51 53 56 58 59 55 54 51 53 52 52 54 56 58 57 55 55 54 52 52 51
58 58 57 55 52 47 45 45 42 39 40 40 43 47 49 53 54 53 52 52 51 51 51 50 50 51 52 52 52 51 53 55 57
66 65 64 62 59 56 55 53 51 48 48 47 44 41 43 46 48 48 48 49 50 49 50 48 46 42 37 38 40 43 46 49 51
72 72 71 70 68 64 62 61 60 58 55 53 53 48 46 45 45 44 44 45 44 42 42 41 39 37 37 34 34 35 38 41 41
79 78 78 76 75 72 70 68 67 66 64 60 58 56 51 51 49 50 51 49 47 46 40 40 39 40 38 36 35 36 36 36 35
84 83 84 82 79 77 76 74 73 72 71 69 65 63 59 55 54 53 55 54 51 49 47 45 45 44 40 39 38 35 37 36 35
90 90 89 88 86 82 81 80 78 80 78 75 73 72 67 62 60 57 57 57 55 53 53 51 48 47 46 44 42 40 38 37 38
99 97 93 93 92 89 86 86 84 85 83 79 77 76 75 71 63 58 60 61 60 60 55 57 55 50 49 48 48 43 42 42 41
106 103 101 99 97 95 93 93 93 91 87 85 83 83 82 80 72 69 73 75 67 60 65 64 59 54 53 53 51 51 47 45 46
111 110 107 104 102 101 100 98 99 100 95 88 87 85 86 86 79 67 54 64 72 67 70 68 61 59 57 58 56 55 53 53 52
107 105 105 102 99 98 99 100 102 103 103 96 91 87 87 89 90 81 74 72 83 77 66 65 68 70 64 63 63 62 59 60 60
101 99 98 96 92 91 90 91 94 102 105 101 96 91 91 91 95 95 93 96 93 90 88 88 83 81 77 73 69 70 68 68 68
90 90 88 90 91 92 93 92 92 94 99 97 97 98 100 100 97 99 101 100 99 97 96 94 91 88 85 85 78 76 76 75 75
79 83 81 81 83 85 89 92 92 93 95 94 95 97 100 104 105 105 102 100 104 105 102 104 97 97 95 91 88 84 80 79 79
68 72 74 74 76 80 84 87 92 96 100 100 97 97 98 103 101 103 103 103 101 99 101 109 105 106 101 95 93 88 87 87 83
Wind_Direction
263 265 267 268 268 264 265 266 267 268 270 270 274 275 277 279 281 283 283 284 282 279 280 282 287 289 289 289 290 294 296 296 299
262 262 264 265 268 267 263 264 267 268 269 270 272 274 276 276 280 282 281 281 280 280 280 282 282 282 285 287 289 292 295 297 297
264 263 261 263 263 264 264 264 265 266 268 269 271 273 274 275 279 277 278 279 278 277 279 280 279 280 283 286 288 289 291 294 296
268 266 265 264 262 261 262 262 263 266 268 269 269 271 272 273 274 276 277 276 276 276 278 278 277 278 282 285 285 284 282 285 289
272 269 268 265 264 262 262 262 263 262 263 265 266 268 270 272 273 274 274 272 271 272 274 274 275 278 281 282 284 285 283 282 284
276 275 273 268 265 264 260 261 265 263 265 267 268 269 269 269 270 270 270 270 269 270 271 272 274 277 280 279 279 281 281 282 282
274 273 273 273 270 266 263 259 259 263 263 264 266 266 269 270 270 269 268 269 270 271 273 275 275 277 280 280 279 279 281 281 283
272 271 272 270 270 269 269 264 263 262 262 262 263 267 269 268 267 269 271 271 272 273 274 274 275 274 277 282 281 280 281 283 282
269 269 267 267 267 266 267 268 268 266 264 263 262 267 267 265 264 265 269 271 271 271 274 276 275 270 278 279 283 287 286 281 283
266 266 266 266 264 264 263 262 264 266 266 266 266 264 264 267 268 267 270 272 272 268 270 269 271 275 275 282 285 289 283 283 282
267 266 265 265 265 263 262 260 261 261 263 265 265 265 263 261 264 265 267 269 270 270 270 273 273 270 273 283 286 285 283 279 278
269 267 263 263 262 263 264 261 260 260 258 259 262 264 264 264 263 263 262 265 267 268 270 268 268 271 272 282 283 280 278 279 279
269 267 266 263 262 262 262 263 263 260 260 258 259 261 263 264 263 262 259 263 264 266 265 267 267 267 269 276 279 276 276 277 277
268 266 264 262 260 259 259 260 262 261 260 258 257 257 259 261 263 263 269 262 264 267 265 262 263 265 269 270 271 273 275 275 276
270 269 267 265 264 260 256 257 258 259 259 258 258 257 256 258 257 260 263 253 261 263 262 257 262 261 265 268 271 273 274 274 276
268 268 267 266 265 263 260 258 257 257 258 259 258 257 256 254 257 252 248 251 265 262 253 258 261 264 263 266 269 269 272 274 275
267 265 264 263 260 259 259 258 256 256 258 258 257 256 255 254 251 253 252 253 257 260 257 259 262 263 264 264 266 268 270 272 274
264 261 258 257 257 255 255 255 253 252 254 254 256 255 254 253 253 252 252 253 255 257 259 259 260 261 263 263 263 265 267 269 272
263 262 258 254 252 251 251 252 253 254 255 253 252 252 252 251 250 252 252 253 255 257 258 261 260 259 260 260 262 262 265 267 270
264 260 257 253 250 248 247 249 251 252 254 254 253 252 250 250 251 251 253 255 256 257 259 261 260 260 260 261 263 264 265 266 268
Height
10863 10865 10865 10867 10868 10869 10869 10870 10871 10872 10872 10872 10872 10872 10872 10873 10873 10871 10872 10871 10871 10870 10870 10869 10868 10867 10866 10865 10864 10863 10861 10860 10858
10856 10856 10857 10858 10859 10860 10861 10862 10862 10863 10864 10865 10864 10864 10864 10864 10867 10865 10865 10864 10864 10863 10863 10863 10862 10861 10860 10859 10858 10857 10855 10854 10853
10847 10848 10848 10849 10851 10851 10852 10854 10854 10853 10854 10856 10856 10855 10855 10855 10856 10857 10858 10858 10857 10857 10856 10856 10856 10854 10853 10853 10852 10851 10850 10848 10847
10839 10839 10839 10840 10841 10842 10842 10844 10845 10845 10845 10845 10846 10847 10847 10846 10847 10847 10847 10848 10849 10849 10849 10849 10848 10847 10846 10845 10845 10844 10843 10842 10841
10831 10830 10830 10830 10831 10832 10833 10832 10833 10835 10834 10835 10836 10837 10836 10836 10836 10838 10837 10838 10839 10839 10840 10840 10839 10839 10838 10837 10837 10836 10835 10834 10834
10822 10821 10821 10822 10822 10823 10824 10824 10824 10825 10824 10825 10826 10826 10825 10825 10825 10827 10826 10827 10828 10829 10830 10830 10830 10830 10829 10829 10828 10827 10826 10826 10825
10810 10811 10811 10811 10811 10813 10815 10816 10815 10815 10816 10817 10817 10817 10816 10814 10816 10816 10817 10817 10818 10818 10819 10820 10820 10820 10820 10819 10817 10817 10816 10816 10815
10797 10797 10798 10800 10801 10802 10803 10804 10805 10806 10807 10808 10808 10808 10807 10805 10805 10807 10807 10808 10808 10809 10809 10810 10810 10811 10810 10809 10807 10807 10807 10806 10805
10782 10783 10783 10784 10787 10789 10791 10791 10791 10792 10795 10796 10796 10798 10798 10797 10796 10796 10798 10798 10798 10799 10800 10800 10800 10801 10801 10800 10800 10799 10798 10797 10795
10765 10766 10766 10768 10771 10773 10777 10778 10778 10779 10780 10782 10784 10785 10787 10788 10787 10786 10787 10788 10788 10790 10791 10791 10792 10792 10792 10793 10792 10791 10790 10788 10787
10746 10748 10749 10749 10752 10756 10760 10763 10763 10765 10766 10767 10769 10770 10774 10776 10778 10776 10776 10777 10780 10780 10781 10782 10782 10782 10783 10783 10783 10783 10782 10780 10780
10724 10726 10728 10730 10733 10737 10740 10744 10748 10747 10749 10752 10754 10755 10758 10762 10765 10766 10765 10765 10767 10769 10770 10770 10771 10771 10772 10772 10774 10774 10774 10773 10772
10697 10699 10704 10707 10713 10718 10722 10723 10727 10728 10731 10736 10739 10740 10742 10746 10751 10753 10753 10752 10753 10757 10758 10757 10758 10759 10760 10761 10762 10764 10764 10764 10764
10667 10671 10676 10680 10687 10694 10699 10701 10703 10706 10710 10716 10721 10724 10726 10729 10737 10741 10739 10738 10739 10741 10743 10743 10746 10746 10747 10749 10750 10751 10753 10754 10753
10636 10641 10647 10654 10661 10668 10673 10677 10679 10682 10688 10696 10702 10707 10709 10713 10722 10723 10718 10718 10721 10727 10727 10729 10732 10733 10734 10735 10737 10738 10740 10741 10741
10602 10609 10616 10623 10632 10637 10644 10653 10658 10660 10660 10672 10682 10688 10691 10697 10697 10705 10707 10702 10706 10712 10713 10712 10715 10717 10719 10722 10724 10725 10727 10727 10728
10574 10581 10587 10593 10603 10609 10616 10624 10630 10634 10637 10646 10658 10668 10672 10675 10675 10680 10685 10687 10690 10692 10695 10696 10699 10700 10703 10707 10710 10711 10712 10712 10713
10543 10548 10558 10563 10571 10582 10588 10594 10600 10604 10608 10621 10630 10639 10644 10647 10653 10656 10661 10665 10669 10672 10674 10678 10681 10684 10687 10688 10693 10695 10696 10698 10698
10519 10520 10529 10538 10544 10554 10562 10568 10575 10581 10587 10592 10601 10605 10613 10619 10626 10632 10638 10644 10648 10650 10654 10654 10662 10662 10666 10668 10672 10678 10682 10684 10684
10497 10496 10502 10512 10520 10530 10537 10545 10551 10555 10559 10562 10572 10579 10586 10590 10601 10609 10614 10620 10624 10630 10634 10631 10636 10637 10644 10652 10656 10658 10662 10666 10670